| time (UTC) | temp F | wind direction | speed knots | gust knots | rain 1hr in | rain 24hr in | rain mn in | humidity % | barometer mb |
| 20260504160105 | 57 | 14 | 2.6 | 6.1 | 0.00 | 0.00 | 0.00 | 37 | 1009.9 |
| 20260504151105 | 52 | 12 | 2.6 | 4.3 | 0.00 | 0.00 | 0.00 | 40 | 1010.3 |
| 20260504150605 | 52 | 11 | 2.6 | 5.2 | 0.00 | 0.00 | 0.00 | 40 | 1010.2 |
| 20260504150105 | 52 | 11 | 2.6 | 5.2 | 0.00 | 0.00 | 0.00 | 42 | 1010.2 |
| 20260504141105 | 46 | 10 | 2.6 | 6.1 | 0.00 | 0.00 | 0.00 | 43 | 1010.4 |
| 20260504140104 | 45 | 11 | 1.7 | 5.2 | 0.00 | 0.00 | 0.00 | 50 | 1010.4 |
| 20260504130604 | 41 | 14 | 0.0 | 0.9 | 0.00 | 0.00 | 0.00 | 53 | 1010.9 |
| 20260504130104 | 41 | 14 | 0.0 | 1.7 | 0.00 | 0.00 | 0.00 | 53 | 1010.9 |
| 20260504110604 | 42 | 11 | 0.0 | 0.9 | 0.00 | 0.00 | 0.00 | 50 | 1010.6 |
| 20260504110104 | 42 | 11 | 0.9 | 2.6 | 0.00 | 0.00 | 0.00 | 47 | 1010.6 |
| 20260504100604 | 41 | 12 | 0.0 | 0.9 | 0.00 | 0.00 | 0.00 | 48 | 1010.7 |
| 20260504100104 | 41 | 12 | 0.0 | 4.3 | 0.00 | 0.00 | 0.00 | 48 | 1010.7 |
| 20260504090105 | 45 | 9 | 5.2 | 12.2 | 0.00 | 0.00 | 0.00 | 37 | 1010.1 |
| 20260504081604 | 45 | 10 | 7.8 | 13.0 | 0.00 | 0.00 | 0.00 | 37 | 1010.7 |
| 20260504080604 | 45 | 9 | 7.0 | 10.4 | 0.00 | 0.00 | 0.00 | 36 | 1010.8 |
| 20260504080104 | 45 | 10 | 6.1 | 12.2 | 0.00 | 0.00 | 0.00 | 36 | 1010.9 |
| 20260504070104 | 45 | 10 | 8.7 | 13.9 | 0.00 | 0.00 | 0.00 | 37 | 1011.3 |
| 20260504060104 | 45 | 9 | 7.8 | 13.0 | 0.00 | 0.00 | 0.00 | 37 | 1011.7 |
| 20260504050604 | 48 | 9 | 4.3 | 7.0 | 0.00 | 0.00 | 0.00 | 35 | 1011.9 |
| 20260504050104 | 48 | 10 | 5.2 | 10.4 | 0.00 | 0.00 | 0.00 | 34 | 1011.9 |
| 20260504044106 | 49 | 9 | 5.2 | 10.4 | 0.00 | 0.00 | 0.00 | 34 | 1012.1 |
| 20260504043605 | 49 | 9 | 7.0 | 11.3 | 0.00 | 0.00 | 0.00 | 33 | 1012.1 |
| 20260504043104 | 49 | 10 | 7.8 | 11.3 | 0.00 | 0.00 | 0.00 | 33 | 1012.1 |
| 20260504041604 | 50 | 9 | 5.2 | 8.7 | 0.00 | 0.00 | 0.00 | 33 | 1012.1 |
| 20260504041104 | 50 | 10 | 6.1 | 10.4 | 0.00 | 0.00 | 0.00 | 33 | 1012.1 |
| 20260504040604 | 50 | 10 | 8.7 | 13.0 | 0.00 | 0.00 | 0.00 | 32 | 1012.1 |
| 20260504040105 | 50 | 10 | 3.5 | 7.8 | 0.00 | 0.00 | 0.00 | 34 | 1012.1 |
| 20260504034605 | 51 | 10 | 7.0 | 10.4 | 0.00 | 0.00 | 0.00 | 32 | 1012.0 |
| 20260504034105 | 51 | 10 | 7.8 | 11.3 | 0.00 | 0.00 | 0.00 | 32 | 1012.0 |
| 20260504033604 | 51 | 10 | 2.6 | 4.3 | 0.00 | 0.00 | 0.00 | 32 | 1012.0 |
| 20260504033104 | 51 | 9 | 1.7 | 4.3 | 0.00 | 0.00 | 0.00 | 33 | 1012.0 |
| 20260504031605 | 51 | 9 | 1.7 | 2.6 | 0.00 | 0.00 | 0.00 | 32 | 1011.9 |
| 20260504031104 | 51 | 9 | 1.7 | 2.6 | 0.00 | 0.00 | 0.00 | 32 | 1011.9 |
| 20260504030604 | 52 | 10 | 2.6 | 5.2 | 0.00 | 0.00 | 0.00 | 32 | 1011.9 |
| 20260504030104 | 52 | 9 | 2.6 | 6.1 | 0.00 | 0.00 | 0.00 | 33 | 1011.8 |
| 20260504024604 | 54 | 9 | 1.7 | 2.6 | 0.00 | 0.00 | 0.00 | 29 | 1011.9 |
| 20260504024104 | 54 | 15 | 0.9 | 1.7 | 0.00 | 0.00 | 0.00 | 29 | 1011.8 |
| 20260504023604 | 54 | 15 | 0.0 | 1.7 | 0.00 | 0.00 | 0.00 | 29 | 1011.8 |
| 20260504023104 | 55 | 15 | 0.9 | 2.6 | 0.00 | 0.00 | 0.00 | 30 | 1011.8 |
| 20260504021104 | 56 | 6 | 1.7 | 2.6 | 0.00 | 0.00 | 0.00 | 25 | 1011.7 |
| 20260504020604 | 57 | 7 | 2.6 | 2.6 | 0.00 | 0.00 | 0.00 | 23 | 1011.8 |
| 20260504014104 | 60 | 13 | 0.0 | 0.9 | 0.00 | 0.00 | 0.00 | 21 | 1011.8 |
| 20260504013604 | 60 | 13 | 0.0 | 0.0 | 0.00 | 0.00 | 0.00 | 21 | 1011.9 |
| 20260504013104 | 60 | 13 | 0.0 | 1.7 | 0.00 | 0.00 | 0.00 | 20 | 1011.9 |
| 20260504011604 | 60 | 13 | 0.9 | 2.6 | 0.00 | 0.00 | 0.00 | 20 | 1011.9 |
| 20260504011104 | 60 | 13 | 0.9 | 2.6 | 0.00 | 0.00 | 0.00 | 19 | 1011.9 |
| 20260504010604 | 60 | 14 | 1.7 | 2.6 | 0.00 | 0.00 | 0.00 | 21 | 1011.9 |
| 20260504010104 | 60 | 14 | 1.7 | 4.3 | 0.00 | 0.00 | 0.00 | 20 | 1012.0 |
| 20260504004104 | 61 | 14 | 1.7 | 5.2 | 0.00 | 0.00 | 0.00 | 20 | 1012.1 |
| 20260504003604 | 61 | 14 | 0.9 | 2.6 | 0.00 | 0.00 | 0.00 | 20 | 1012.1 |
| 20260504003104 | 61 | 14 | 1.7 | 6.1 | 0.00 | 0.00 | 0.00 | 20 | 1012.1 |
| 20260504001604 | 62 | 14 | 2.6 | 7.8 | 0.00 | 0.00 | 0.00 | 20 | 1012.2 |
| 20260504001104 | 62 | 13 | 0.9 | 2.6 | 0.00 | 0.00 | 0.00 | 19 | 1012.2 |
| 20260504000603 | 62 | 15 | 0.9 | 2.6 | 0.00 | 0.00 | 0.00 | 19 | 1012.3 |
| 20260504000104 | 62 | 15 | 1.7 | 4.3 | 0.00 | 0.00 | 0.00 | 20 | 1012.4 |
| 20260503234604 | 62 | 13 | 1.7 | 7.8 | 0.00 | 0.00 | 0.00 | 19 | 1012.4 |
| 20260503234103 | 62 | 14 | 1.7 | 2.6 | 0.00 | 0.00 | 0.00 | 19 | 1012.4 |
| 20260503233604 | 62 | 13 | 2.6 | 5.2 | 0.00 | 0.00 | 0.00 | 18 | 1012.5 |
| 20260503233104 | 62 | 15 | 0.9 | 7.8 | 0.00 | 0.00 | 0.00 | 18 | 1012.5 |
| 20260503231604 | 64 | 14 | 3.5 | 7.0 | 0.00 | 0.00 | 0.00 | 18 | 1012.6 |
| 20260503231103 | 64 | 13 | 2.6 | 7.8 | 0.00 | 0.00 | 0.00 | 17 | 1012.6 |
| 20260503230604 | 65 | 14 | 3.5 | 7.8 | 0.00 | 0.00 | 0.00 | 17 | 1012.7 |
| 20260503230104 | 65 | 14 | 3.5 | 10.4 | 0.00 | 0.00 | 0.00 | 18 | 1012.7 |
| 20260503224603 | 64 | 15 | 4.3 | 10.4 | 0.00 | 0.00 | 0.00 | 18 | 1012.7 |
| 20260503224104 | 63 | 14 | 3.5 | 10.4 | 0.00 | 0.00 | 0.00 | 19 | 1012.8 |
| 20260503223604 | 63 | 14 | 2.6 | 5.2 | 0.00 | 0.00 | 0.00 | 19 | 1012.8 |
| 20260503223104 | 62 | 14 | 2.6 | 6.1 | 0.00 | 0.00 | 0.00 | 19 | 1012.9 |
| 20260503221605 | 61 | 14 | 2.6 | 7.8 | 0.00 | 0.00 | 0.00 | 18 | 1013.0 |
| 20260503221104 | 61 | 14 | 4.3 | 7.8 | 0.00 | 0.00 | 0.00 | 19 | 1013.1 |
| 20260503220605 | 61 | 13 | 2.6 | 10.4 | 0.00 | 0.00 | 0.00 | 19 | 1013.2 |
| 20260503220105 | 62 | 12 | 1.7 | 10.4 | 0.00 | 0.00 | 0.00 | 19 | 1013.3 |
| 20260503214605 | 63 | 13 | 2.6 | 5.2 | 0.00 | 0.00 | 0.00 | 18 | 1013.7 |
| 20260503214105 | 63 | 15 | 1.7 | 4.3 | 0.00 | 0.00 | 0.00 | 16 | 1013.7 |
| 20260503213604 | 63 | 10 | 2.6 | 6.1 | 0.00 | 0.00 | 0.00 | 18 | 1013.7 |
| 20260503213105 | 64 | 11 | 2.6 | 10.4 | 0.00 | 0.00 | 0.00 | 17 | 1013.9 |
| 20260503211605 | 64 | 14 | 3.5 | 7.0 | 0.00 | 0.00 | 0.00 | 17 | 1014.1 |
| 20260503211105 | 64 | 14 | 5.2 | 10.4 | 0.00 | 0.00 | 0.00 | 18 | 1014.1 |
| 20260503210604 | 65 | 14 | 4.3 | 13.9 | 0.00 | 0.00 | 0.00 | 18 | 1014.1 |
| 20260503210105 | 65 | 13 | 5.2 | 12.2 | 0.00 | 0.00 | 0.00 | 18 | 1014.3 |
| 20260503204605 | 65 | 13 | 4.3 | 11.3 | 0.00 | 0.00 | 0.00 | 17 | 1014.6 |
| 20260503204105 | 64 | 14 | 4.3 | 12.2 | 0.00 | 0.00 | 0.00 | 17 | 1014.5 |
| 20260503203105 | 64 | 14 | 2.6 | 11.3 | 0.00 | 0.00 | 0.00 | 17 | 1014.5 |
| 20260503201104 | 64 | 14 | 5.2 | 10.4 | 0.00 | 0.00 | 0.00 | 16 | 1014.8 |
| 20260503200605 | 65 | 14 | 6.1 | 13.0 | 0.00 | 0.00 | 0.00 | 16 | 1014.9 |
| 20260503200105 | 65 | 15 | 4.3 | 11.3 | 0.00 | 0.00 | 0.00 | 18 | 1014.8 |
| 20260503194605 | 62 | 13 | 4.3 | 13.9 | 0.00 | 0.00 | 0.00 | 18 | 1015.0 |
| 20260503193604 | 62 | 13 | 3.5 | 8.7 | 0.00 | 0.00 | 0.00 | 17 | 1015.3 |
| 20260503193105 | 62 | 13 | 3.5 | 8.7 | 0.00 | 0.00 | 0.00 | 18 | 1015.2 |
| 20260503191105 | 64 | 14 | 2.6 | 6.1 | 0.00 | 0.00 | 0.00 | 15 | 1015.7 |
| 20260503190605 | 64 | 21 | 5.2 | 13.0 | 0.00 | 0.00 | 0.00 | 15 | 1015.8 |
| 20260503190105 | 65 | 15 | 4.3 | 11.3 | 0.00 | 0.00 | 0.00 | 16 | 1015.8 |
| 20260503184605 | 64 | 13 | 5.2 | 10.4 | 0.00 | 0.00 | 0.00 | 16 | 1016.0 |
| 20260503184105 | 64 | 14 | 2.6 | 13.0 | 0.00 | 0.00 | 0.00 | 17 | 1016.3 |
| 20260503183605 | 63 | 12 | 1.7 | 8.7 | 0.00 | 0.00 | 0.00 | 17 | 1016.3 |
| 20260503183105 | 62 | 16 | 5.2 | 10.4 | 0.00 | 0.00 | 0.00 | 19 | 1016.5 |
| 20260503181605 | 63 | 13 | 1.7 | 4.3 | 0.00 | 0.00 | 0.00 | 16 | 1016.7 |
| 20260503181105 | 63 | 12 | 1.7 | 5.2 | 0.00 | 0.00 | 0.00 | 16 | 1016.8 |
| 20260503180604 | 62 | 14 | 2.6 | 8.7 | 0.00 | 0.00 | 0.00 | 16 | 1016.8 |
| 20260503180105 | 62 | 22 | 3.5 | 8.7 | 0.00 | 0.00 | 0.00 | 18 | 1016.9 |
| 20260503174605 | 61 | 18 | 3.5 | 10.4 | 0.00 | 0.00 | 0.00 | 16 | 1017.0 |
| 20260503174105 | 62 | 14 | 0.9 | 5.2 | 0.00 | 0.00 | 0.00 | 16 | 1017.0 |
| 20260503173605 | 62 | 17 | 2.6 | 6.1 | 0.00 | 0.00 | 0.00 | 16 | 1017.1 |
| 20260503173105 | 63 | 17 | 3.5 | 10.4 | 0.00 | 0.00 | 0.00 | 16 | 1017.1 |
| 20260503171605 | 63 | 20 | 2.6 | 8.7 | 0.00 | 0.00 | 0.00 | 16 | 1017.1 |
| 20260503170605 | 63 | 9 | 2.6 | 7.0 | 0.00 | 0.00 | 0.00 | 15 | 1017.0 |
| 20260503170105 | 63 | 17 | 2.6 | 8.7 | 0.00 | 0.00 | 0.00 | 15 | 1017.2 |